timestamp,surface_pressure_avg,surface_temp_avg,battery_voltage,lat,long
2023-10-18 00:09:01+00:00,311.9446,10.7,11.46,47.84626,-54.09684
2023-10-18 00:19:00+00:00,317.7263,10.7,11.46,47.84626,-54.09684
2023-10-18 00:29:00+00:00,322.9464,10.7,11.46,47.84626,-54.09684
2023-10-18 00:39:00+00:00,324.3947,10.7,11.46,47.84626,-54.09684
2023-10-18 00:49:00+00:00,326.318,10.73,11.46,47.84626,-54.09684
2023-10-18 00:59:00+00:00,329.358,10.75,11.46,47.84626,-54.09684
2023-10-18 01:09:00+00:00,331.4413,10.7,11.46,47.84626,-54.09684
2023-10-18 01:19:00+00:00,330.5446,10.79,11.46,47.84626,-54.09684
2023-10-18 01:29:00+00:00,330.7096,10.72,11.46,47.84626,-54.09684
2023-10-18 01:39:00+00:00,332.083,10.66,11.46,47.84626,-54.09684
2023-10-18 01:49:00+00:00,331.5262,10.67,11.46,47.84626,-54.09684
2023-10-18 01:59:00+00:00,329.2513,10.7,11.46,47.84626,-54.09684
2023-10-18 02:09:00+00:00,329.80800000000005,10.7,11.46,47.84626,-54.09684
2023-10-18 02:19:00+00:00,331.4896,10.7,11.46,47.84626,-54.09684
2023-10-18 02:29:00+00:00,327.8796,10.67,11.46,47.84626,-54.09684
2023-10-18 02:39:00+00:00,324.373,10.69,11.46,47.84626,-54.09684
2023-10-18 02:49:00+00:00,323.0947,10.7,11.46,47.84626,-54.09684
2023-10-18 02:59:00+00:00,320.5381,10.7,11.46,47.84626,-54.09684
2023-10-18 03:09:00+00:00,313.2913,10.7,11.46,47.84626,-54.09684
2023-10-18 03:19:00+00:00,309.2747,10.69,11.46,47.84626,-54.09684
2023-10-18 03:29:00+00:00,307.2697,10.69,11.46,47.84626,-54.09684
2023-10-18 03:39:00+00:00,300.3864,10.7,11.46,47.84626,-54.09684
2023-10-18 03:49:00+00:00,292.548,10.69,11.46,47.84626,-54.09684
2023-10-18 03:59:00+00:00,288.9747,10.69,11.46,47.84626,-54.09684
2023-10-18 04:09:00+00:00,284.2163,10.7,11.46,47.84626,-54.09684
2023-10-18 04:19:00+00:00,275.0864,10.7,11.46,47.84626,-54.09684
2023-10-18 04:29:00+00:00,268.5281,10.7,11.46,47.84626,-54.09684
2023-10-18 04:39:00+00:00,262.7498,10.7,11.46,47.84626,-54.09684
2023-10-18 04:49:00+00:00,253.8814,10.7,11.46,47.84626,-54.09684
2023-10-18 04:59:00+00:00,242.8248,10.7,11.46,47.84626,-54.09684
2023-10-18 05:09:00+00:00,236.9614,10.7,11.46,47.84626,-54.09684
2023-10-18 05:19:00+00:00,231.6864,10.7,11.37,47.84626,-54.09684
2023-10-18 05:29:00+00:00,223.6064,10.7,11.37,47.84626,-54.09684
2023-10-18 05:39:00+00:00,216.5131,10.7,11.37,47.84626,-54.09684
2023-10-18 05:49:00+00:00,211.4781,10.7,11.37,47.84626,-54.09684
2023-10-18 05:59:00+00:00,206.5381,10.7,11.37,47.84626,-54.09684
2023-10-18 06:09:00+00:00,202.2015,10.7,11.37,47.84626,-54.09684
2023-10-18 06:19:00+00:00,198.2515,10.7,11.37,47.84626,-54.09684
2023-10-18 06:29:00+00:00,193.8248,10.7,11.37,47.84626,-54.09684
2023-10-18 06:39:00+00:00,188.0365,10.7,11.37,47.84626,-54.09684
2023-10-18 06:49:00+00:00,184.1381,10.7,11.37,47.84626,-54.09684
2023-10-18 06:59:00+00:00,182.6331,10.7,11.37,47.84626,-54.09684
2023-10-18 07:09:00+00:00,180.1414,10.7,11.37,47.84626,-54.09684
2023-10-18 07:19:00+00:00,180.6215,10.7,11.37,47.84626,-54.09684
2023-10-18 07:29:00+00:00,182.6915,10.7,11.37,47.84626,-54.09684
2023-10-18 07:39:00+00:00,182.3715,10.7,11.37,47.84626,-54.09684
2023-10-18 07:49:00+00:00,187.3981,10.7,11.37,47.84626,-54.09684
2023-10-18 07:59:00+00:00,194.5465,10.7,11.37,47.84626,-54.09684
2023-10-18 08:09:00+00:00,196.7831,10.7,11.37,47.84626,-54.09684
2023-10-18 08:19:00+00:00,200.5114,10.7,11.37,47.84626,-54.09684
2023-10-18 08:29:00+00:00,208.6265,10.7,11.37,47.84626,-54.09684
2023-10-18 08:39:00+00:00,215.0831,10.7,11.37,47.84626,-54.09684
2023-10-18 08:49:00+00:00,218.8064,10.7,11.37,47.84626,-54.09684
2023-10-18 08:59:00+00:00,224.3964,10.7,11.37,47.84626,-54.09684
2023-10-18 09:09:00+00:00,231.4197,10.7,11.37,47.84626,-54.09684
2023-10-18 09:19:00+00:00,238.0147,10.7,11.37,47.84626,-54.09684
2023-10-18 09:29:00+00:00,243.1814,10.7,11.37,47.84626,-54.09684
2023-10-18 09:39:00+00:00,247.0748,10.7,11.37,47.84626,-54.09684
2023-10-18 09:49:00+00:00,250.1548,10.7,11.37,47.84626,-54.09684
2023-10-18 09:59:00+00:00,252.0398,10.7,11.37,47.84626,-54.09684
2023-10-18 10:09:00+00:00,254.1547,10.7,11.37,47.84626,-54.09684
2023-10-18 10:19:00+00:00,259.8414,10.68,11.37,47.84626,-54.09684
2023-10-18 10:29:00+00:00,264.4364,10.67,11.37,47.84626,-54.09684
2023-10-18 10:39:00+00:00,269.0815,10.68,11.37,47.84626,-54.09684
2023-10-18 10:49:00+00:00,274.5047,10.67,11.37,47.84626,-54.09684
2023-10-18 10:59:00+00:00,280.5314,10.68,11.37,47.84626,-54.09684
2023-10-18 11:09:00+00:00,283.6597,10.68,11.37,47.84626,-54.09684
2023-10-18 11:19:00+00:00,292.1364,10.66,11.37,47.84626,-54.09684
2023-10-18 11:29:00+00:00,299.8514,10.66,11.37,47.84626,-54.09684
2023-10-18 11:39:00+00:00,305.1447,10.66,11.37,47.84626,-54.09684
2023-10-18 11:49:00+00:00,308.9413,10.67,11.37,47.84626,-54.09684
2023-10-18 11:59:00+00:00,317.8447,10.65,11.37,47.84626,-54.09684
2023-10-18 12:09:00+00:00,327.4579,10.65,11.37,47.84626,-54.09684
2023-10-18 12:19:00+00:00,334.6163,10.65,11.46,47.84626,-54.09684
2023-10-18 12:29:00+00:00,339.973,10.65,11.46,47.84626,-54.09684
2023-10-18 12:39:00+00:00,347.75300000000016,10.65,11.46,47.84626,-54.09684
2023-10-18 12:49:00+00:00,355.2897,10.67,11.46,47.84626,-54.09684
2023-10-18 12:59:00+00:00,357.3913,10.67,11.46,47.84626,-54.09684
2023-10-18 13:09:00+00:00,355.9247,10.67,11.46,47.84626,-54.09684
2023-10-18 13:19:00+00:00,360.7462,10.64,11.7,47.84626,-54.09684
2023-10-18 13:29:00+00:00,365.1097,10.65,11.7,47.84626,-54.09684
2023-10-18 13:39:00+00:00,362.2696,10.67,11.7,47.84626,-54.09684
2023-10-18 13:49:00+00:00,360.4496,10.67,11.7,47.84626,-54.09684
2023-10-18 13:59:00+00:00,365.0311,10.67,11.7,47.84626,-54.09684
2023-10-18 14:09:00+00:00,365.2029,10.67,11.7,47.84626,-54.09684
2023-10-18 14:19:00+00:00,360.8297,10.67,11.86,47.84626,-54.09684
2023-10-18 14:29:00+00:00,358.718,10.7,11.86,47.84626,-54.09684
2023-10-18 14:39:00+00:00,357.6563,10.7,11.86,47.84626,-54.09684
2023-10-18 14:49:00+00:00,351.6746,10.7,11.86,47.84626,-54.09684
2023-10-18 14:59:00+00:00,347.8279,10.77,11.86,47.84626,-54.09684
2023-10-18 15:09:00+00:00,346.0063,10.7,11.86,47.84626,-54.09684
2023-10-18 15:19:00+00:00,339.0179,10.7,11.77,47.84626,-54.09684
2023-10-18 15:29:00+00:00,334.543,10.7,11.77,47.84626,-54.09684
2023-10-18 15:39:00+00:00,332.99300000000005,10.7,11.77,47.84626,-54.09684
2023-10-18 15:49:00+00:00,327.1996,10.7,11.77,47.84626,-54.09684
2023-10-18 15:59:00+00:00,316.668,10.7,11.77,47.84626,-54.09684
2023-10-18 16:09:00+00:00,312.2263,10.7,11.77,47.84626,-54.09684
2023-10-18 16:19:00+00:00,306.3113,10.72,11.7,47.84626,-54.09684
2023-10-18 16:29:00+00:00,293.713,10.78,11.7,47.84626,-54.09684
2023-10-18 16:39:00+00:00,285.8181,10.8,11.7,47.84626,-54.09684
2023-10-18 16:49:00+00:00,282.4297,10.8,11.7,47.84626,-54.09684
2023-10-18 16:59:00+00:00,271.0147,10.8,11.7,47.84626,-54.09684
2023-10-18 17:09:00+00:00,258.5714,10.8,11.7,47.84626,-54.09684
2023-10-18 17:19:00+00:00,256.4665,10.8,11.86,47.84626,-54.09684
2023-10-18 17:29:00+00:00,251.6814,10.8,11.86,47.84626,-54.09684
2023-10-18 17:39:00+00:00,238.1798,10.8,11.86,47.84626,-54.09684
2023-10-18 17:49:00+00:00,230.4765,10.8,11.86,47.84626,-54.09684
2023-10-18 17:59:00+00:00,228.2064,10.82,11.86,47.84626,-54.09684
2023-10-18 18:09:00+00:00,217.1014,10.8,11.86,47.84626,-54.09684
2023-10-18 18:19:00+00:00,205.2281,10.8,11.7,47.84626,-54.09684
2023-10-18 18:29:00+00:00,203.8164,10.8,11.7,47.84626,-54.09684
2023-10-18 18:39:00+00:00,198.6298,10.8,11.7,47.84626,-54.09684
2023-10-18 18:49:00+00:00,189.0198,10.8,11.7,47.84626,-54.09684
2023-10-18 18:59:00+00:00,186.5681,10.8,11.7,47.84626,-54.09684
2023-10-18 19:09:00+00:00,188.3981,10.8,11.7,47.84626,-54.09684
2023-10-18 19:19:00+00:00,182.4865,10.8,11.61,47.84626,-54.09684
2023-10-18 19:29:00+00:00,177.9898,10.8,11.61,47.84626,-54.09684
2023-10-18 19:39:00+00:00,183.5481,10.8,11.61,47.84626,-54.09684
2023-10-18 19:49:00+00:00,182.3615,10.85,11.61,47.84626,-54.09684
2023-10-18 19:59:00+00:00,177.5215,10.87,11.61,47.84626,-54.09684
2023-10-18 20:09:00+00:00,180.4365,10.88,11.61,47.84626,-54.09684
2023-10-18 20:19:00+00:00,184.6064,10.88,11.53,47.84626,-54.09684
2023-10-18 20:29:00+00:00,182.1765,10.89,11.53,47.84626,-54.09684
2023-10-18 20:39:00+00:00,184.0615,10.9,11.53,47.84626,-54.09684
2023-10-18 20:49:00+00:00,196.1614,10.9,11.53,47.84626,-54.09684
2023-10-18 20:59:00+00:00,200.7681,10.9,11.53,47.84626,-54.09684
2023-10-18 21:09:00+00:00,200.5448,10.9,11.53,47.84626,-54.09684
2023-10-18 21:19:00+00:00,208.6731,10.9,11.53,47.84626,-54.09684
2023-10-18 21:29:00+00:00,218.6265,10.9,11.53,47.84626,-54.09684
2023-10-18 21:39:00+00:00,220.8848,10.9,11.53,47.84626,-54.09684
2023-10-18 21:49:00+00:00,222.9781,10.9,11.53,47.84626,-54.09684
2023-10-18 21:59:00+00:00,228.4081,10.9,11.53,47.84626,-54.09684
2023-10-18 22:09:00+00:00,231.1663,10.9,11.53,47.84626,-54.09684
2023-10-18 22:19:00+00:00,231.7064,10.9,11.46,47.84626,-54.09684
2023-10-18 22:29:00+00:00,237.3465,10.9,11.46,47.84626,-54.09684
2023-10-18 22:39:00+00:00,242.8114,10.9,11.46,47.84626,-54.09684
2023-10-18 22:49:00+00:00,246.8814,10.9,11.46,47.84626,-54.09684
2023-10-18 22:59:00+00:00,252.5664,10.9,11.46,47.84626,-54.09684
2023-10-18 23:09:00+00:00,258.8964,10.9,11.46,47.84626,-54.09684
2023-10-18 23:19:01+00:00,260.8848,10.9,11.46,47.84626,-54.09684
2023-10-18 23:29:01+00:00,264.0631,10.9,11.46,47.84626,-54.09684
2023-10-18 23:39:01+00:00,269.1131,10.9,11.46,47.84626,-54.09684
2023-10-18 23:49:01+00:00,273.6947,10.9,11.46,47.84626,-54.09684
2023-10-18 23:59:01+00:00,275.9147,10.9,11.46,47.84626,-54.09684
